GFSGBSN_con_3kmhel_159.txt.gz
Helicity
122 110 138 142 128 150 146 123 122 125 120 123 119 112 104 93 89 76 70 68 66 72 70 63 72 72 27 75 58 54 14 -13 33 70 58 88 98 102 110 125 105 103 100 86 67 65 81
137 133 152 182 145 144 138 145 143 140 133 131 134 130 118 109 103 93 86 89 90 85 79 79 93 86 25 69 44 62 98 74 73 118 102 119 148 147 95 90 111 111 106 46 22 24 31
199 137 137 144 170 135 127 154 157 150 144 132 126 132 133 123 120 103 109 125 106 102 104 112 109 74 61 75 74 57 50 70 65 84 106 96 147 189 196 135 134 178 140 106 60 69 83
141 213 142 145 140 148 178 162 173 172 158 153 137 137 139 126 113 112 114 119 112 100 85 92 105 79 46 52 74 33 51 85 49 63 67 67 86 110 133 128 142 165 135 134 133 63 74
103 93 193 137 135 136 173 202 174 182 178 168 159 149 145 135 128 131 126 128 123 116 115 96 98 69 48 87 76 23 18 61 86 97 87 63 102 127 161 197 220 169 176 128 120 125 102
150 83 100 188 139 133 141 151 177 157 182 187 169 171 168 155 160 186 205 206 186 166 126 107 125 121 90 66 50 53 24 21 58 68 95 146 167 180 178 198 231 178 155 147 157 110 138
164 163 73 136 154 153 120 131 149 209 206 198 183 172 180 192 260 316 344 249 227 221 233 244 105 116 143 45 76 76 74 78 77 143 152 114 211 209 92 106 99 89 82 90 85 90 51
84 149 160 107 126 143 137 112 146 158 186 173 190 197 229 268 273 246 276 294 297 239 122 70 74 107 58 42 170 95 77 114 144 121 117 192 174 61 37 38 49 69 100 112 86 84 74
116 79 136 160 131 161 145 130 140 178 183 178 224 231 254 283 282 323 311 285 334 255 196 81 85 92 81 86 130 99 131 74 108 126 107 136 107 122 111 90 90 81 87 97 65 65 76
113 110 69 130 147 154 143 140 151 174 203 228 198 186 240 297 330 360 287 206 262 234 160 128 106 99 138 126 153 43 1 61 111 120 90 146 103 88 102 80 100 110 47 94 113 108 63
117 104 68 85 125 162 150 157 142 163 191 191 229 255 343 276 241 278 161 258 260 232 282 136 131 99 87 256 195 69 45 29 30 79 166 215 128 100 133 111 117 105 113 99 92 123 76
90 100 147 98 95 138 157 154 149 166 181 202 256 299 328 367 352 336 282 336 314 216 162 160 162 153 165 130 160 179 114 124 29 36 60 70 23 89 98 99 143 181 135 108 109 126 115
52 107 102 94 86 118 117 128 113 131 169 214 290 365 396 386 393 271 323 353 391 436 168 184 174 112 107 156 96 125 102 159 203 217 80 -0 3 -34 35 63 148 199 190 138 165 237 182
104 41 85 68 82 107 126 130 112 133 145 255 353 376 382 471 342 348 365 483 378 249 269 90 116 116 118 135 70 45 79 158 11 63 182 149 166 94 67 132 239 247 261 270 201 203 176
113 82 59 70 73 118 123 115 112 189 213 283 409 407 481 435 378 431 426 349 374 378 191 264 238 168 148 79 142 105 121 156 103 76 214 205 233 234 219 142 155 244 281 116 153 142 189
71 19 79 89 106 117 126 109 138 222 316 416 391 530 528 673 374 481 365 460 492 231 172 162 373 277 284 180 216 216 237 133 97 184 135 269 299 247 319 319 285 278 229 277 335 321 305
16 43 73 108 95 87 140 167 231 367 437 379 590 481 610 655 514 517 526 484 293 150 296 368 289 416 300 220 123 212 207 160 88 278 341 373 359 317 274 320 261 285 315 313 332 387 364
24 165 198 130 184 157 204 267 403 455 593 671 744 500 551 709 657 758 742 763 359 337 484 457 442 203 277 155 194 175 141 143 264 264 317 326 312 348 307 243 275 288 326 295 385 428 365
292 263 278 366 338 261 446 416 384 397 541 753 767 737 691 627 776 792 599 564 560 558 344 444 392 350 282 334 309 139 249 266 407 429 392 347 412 476 480 349 244 288 291 357 373 341 296
376 348 274 90 316 450 547 576 342 320 587 725 665 470 465 433 517 600 564 352 529 193 252 302 364 406 471 445 364 336 360 327 349 378 351 366 529 471 409 498 395 303 347 293 214 343 325
277 212 127 156 106 129 129 108 122 156 187 337 671 764 577 498 391 289 213 215 270 245 256 360 442 381 411 417 418 313 358 324 246 209 274 310 422 357 320 298 274 230 179 207 228 216 237
62 80 88 83 66 50 46 61 101 97 99 130 145 254 197 136 196 230 203 179 122 151 161 369 330 322 363 400 376 381 210 287 256 194 252 252 314 274 263 209 164 132 103 107 103 116 131
81 72 82 89 85 85 95 118 150 157 134 122 184 128 175 164 238 233 263 281 235 318 369 367 481 420 336 311 254 310 221 234 279 245 280 230 239 271 220 152 166 224 152 81 88 79 99
86 84 71 79 111 145 169 187 209 248 222 180 234 180 175 117 212 117 117 222 289 165 235 201 285 339 249 225 285 365 348 340 323 316 237 256 215 259 241 264 259 162 127 97 53 39 61
30 35 37 51 95 130 157 180 233 257 216 203 244 268 263 240 163 144 -13 -52 128 177 282 226 216 140 134 261 309 329 335 320 271 197 193 217 298 280 239 182 154 96 122 152 109 122 85
7 11 14 9 17 63 107 152 198 228 186 164 241 225 243 279 241 145 150 94 188 175 175 209 310 287 355 403 397 400 408 351 300 356 254 213 157 227 247 263 190 134 103 86 85 137 112
20 18 21 21 20 31 42 59 101 149 122 75 207 197 185 303 300 240 227 149 186 254 223 206 197 193 196 185 225 194 190 121 157 198 161 147 175 148 163 256 253 182 115 38 193 160 151
20 21 16 17 16 25 36 70 94 111 77 9 86 90 93 179 254 221 273 183 111 160 208 158 248 219 226 180 81 66 47 114 117 133 158 177 208 225 239 253 205 137 76 103 58 36 47
15 7 16 19 7 18 36 69 95 88 94 55 60 118 85 75 74 81 136 149 220 226 118 125 71 139 105 155 134 155 170 185 180 214 182 224 207 201 200 240 184 127 92 43 2 12 -5

GFSGBSN_con_3kmhel_162.txt.gz
Helicity
92 58 64 113 164 139 129 118 113 126 125 126 109 100 100 92 89 78 79 78 75 76 86 88 90 90 43 64 51 59 16 51 37 74 79 93 120 129 123 107 81 109 97 93 78 53 20
134 146 126 114 104 142 124 131 142 141 135 128 117 118 115 107 105 97 98 97 87 79 85 87 86 85 49 61 45 48 118 112 77 100 119 128 142 110 88 99 115 108 79 22 -3 20 30
110 132 125 124 133 111 132 141 146 154 137 134 127 120 118 115 116 108 113 114 100 88 85 78 93 68 59 57 72 84 74 69 84 104 104 113 127 149 160 127 141 111 94 75 45 67 84
151 123 128 129 115 136 133 175 135 161 169 147 132 130 125 124 123 113 118 120 113 98 97 89 96 66 63 60 70 33 86 57 47 77 91 85 136 143 130 135 156 149 144 169 114 95 88
197 170 138 113 156 120 139 159 175 138 154 154 147 146 136 133 127 125 128 137 127 127 128 98 82 78 47 67 108 125 78 95 124 142 129 98 160 174 213 211 203 182 181 171 144 87 148
222 157 180 155 98 127 148 130 91 169 151 153 156 155 146 149 156 175 196 196 173 163 146 111 128 150 97 90 91 71 52 48 81 127 145 148 211 231 256 277 236 144 163 141 170 134 196
162 196 182 174 127 71 186 132 58 111 174 180 151 176 170 171 225 289 343 259 225 211 231 227 110 103 164 132 155 61 58 75 98 164 146 151 208 209 102 115 164 164 141 126 129 178 140
65 149 153 211 157 130 92 187 140 87 88 133 162 180 208 230 280 246 269 286 250 196 99 60 58 108 73 100 146 118 98 99 111 103 128 193 133 71 117 116 101 115 138 140 142 122 125
63 101 94 147 206 162 21 105 181 134 118 157 154 194 256 274 275 281 215 185 263 211 141 38 137 137 142 107 144 99 151 87 123 130 129 149 70 126 142 139 131 116 137 156 143 109 85
81 47 134 142 110 195 155 63 175 169 142 144 152 188 248 366 306 322 288 340 263 247 117 102 111 110 224 205 157 85 186 190 171 129 87 93 53 47 112 142 165 143 116 106 103 102 111
119 107 114 179 160 98 194 192 162 168 172 160 164 172 285 354 411 300 314 342 335 212 200 113 149 108 120 245 258 83 163 228 166 140 159 123 91 66 115 110 124 127 110 100 72 93 122
92 124 41 133 126 103 105 188 103 171 201 178 191 254 270 277 415 317 355 426 289 294 305 321 153 146 236 106 264 274 82 197 114 102 59 36 35 56 72 111 129 137 140 110 74 82 150
81 105 148 94 160 123 99 124 171 139 197 169 190 277 336 412 335 253 298 267 314 382 254 202 174 127 111 149 144 289 289 245 245 202 54 30 -53 -65 19 58 104 150 177 155 173 162 181
64 71 135 107 97 120 115 113 132 173 177 175 200 257 263 385 358 369 269 399 433 211 233 207 181 135 93 156 91 268 240 243 196 193 172 129 95 2 19 63 102 175 211 243 171 204 177
57 66 88 141 118 133 78 97 114 164 185 174 210 276 271 360 480 497 385 393 474 332 325 484 302 329 252 202 190 214 202 202 130 154 187 161 158 103 103 132 190 243 291 234 271 264 249
54 54 69 142 95 114 90 109 105 144 188 208 250 266 282 406 356 407 349 359 504 400 200 240 332 279 277 155 191 173 207 112 145 92 118 180 222 172 178 191 209 208 239 381 404 345 304
43 48 59 100 93 96 98 101 101 141 152 148 273 343 306 557 418 427 399 522 491 303 364 329 261 224 274 325 256 279 228 308 138 149 130 197 265 266 250 271 311 376 391 385 379 432 388
52 50 71 80 98 116 120 98 110 155 139 217 318 378 414 557 481 461 291 324 301 264 334 212 256 271 220 196 252 300 286 273 222 259 352 296 255 264 311 309 259 324 346 381 479 466 460
43 39 58 47 65 59 78 113 110 117 177 479 473 478 442 529 429 532 345 401 469 439 484 266 269 340 59 242 347 243 374 360 321 385 354 392 398 402 428 419 431 436 465 495 507 529 493
7 119 81 59 106 77 83 124 114 92 189 479 383 542 620 695 672 593 614 607 453 489 424 413 357 509 354 384 474 509 504 360 354 415 371 368 412 374 346 462 552 491 454 533 506 534 505
327 387 393 406 384 260 360 496 452 399 413 509 429 409 537 473 525 536 627 485 586 612 606 616 791 728 546 450 440 642 577 402 467 415 497 462 458 509 507 428 426 392 318 379 408 299 258
224 267 182 359 568 617 574 599 686 727 615 556 368 470 546 806 631 660 684 564 566 643 641 706 923 744 649 683 369 490 458 539 507 478 450 458 530 501 461 370 347 297 263 189 165 175 167
84 90 102 95 116 205 367 467 603 516 537 682 604 641 608 794 704 774 718 610 654 521 539 167 262 337 297 296 234 277 279 309 273 386 443 395 404 422 478 333 324 336 196 110 166 136 124
86 92 92 78 48 50 60 80 65 47 65 138 111 220 443 577 538 559 430 303 291 212 187 222 208 226 207 241 330 379 450 421 325 320 292 334 384 371 310 248 306 230 274 216 148 110 138
67 90 109 118 127 119 122 142 109 119 109 154 112 82 140 363 244 183 113 192 261 268 347 290 420 283 278 338 438 445 469 383 340 265 244 275 335 330 294 291 276 217 261 185 169 151 141
38 61 82 113 151 178 203 210 175 139 140 124 191 146 132 178 143 48 111 119 185 264 320 281 304 308 327 343 398 354 374 358 327 250 199 260 323 344 390 448 444 181 157 181 135 123 262
28 31 47 70 94 134 186 236 220 187 169 141 222 172 161 185 294 205 181 180 166 245 281 259 251 268 216 296 300 297 334 250 324 305 376 408 400 371 410 354 277 166 187 184 191 191 171
34 46 47 59 75 95 119 134 120 119 120 126 191 192 157 266 377 245 187 220 245 270 302 253 374 333 305 244 243 250 241 335 376 294 294 312 332 360 386 380 373 164 130 178 115 137 145
32 35 44 46 66 80 89 91 91 57 70 67 178 129 142 189 267 206 195 160 143 78 155 162 206 231 196 305 249 208 243 224 248 336 179 275 240 217 215 227 220 149 106 127 102 93 66

GFSGBSN_con_3kmhel_165.txt.gz
Helicity
78 185 102 132 157 129 135 122 119 125 128 118 110 107 103 100 102 96 90 83 75 74 78 74 65 71 30 55 43 75 94 48 50 57 71 89 105 83 96 101 120 122 118 100 49 6 17
69 98 106 114 116 145 170 136 131 126 124 124 119 113 115 110 108 104 100 92 87 79 76 76 81 51 3 46 43 74 111 105 94 95 105 104 96 91 91 95 101 126 88 63 41 35 49
179 98 75 105 108 103 116 159 147 134 128 127 120 123 116 113 110 113 104 96 96 88 89 88 85 38 10 52 56 89 46 49 83 105 125 123 122 150 133 114 134 86 86 99 85 79 95
181 187 112 89 58 96 144 104 183 172 128 135 133 135 132 124 114 120 114 107 110 97 104 98 77 61 27 49 56 47 85 58 68 73 106 101 138 143 147 157 175 140 124 150 94 127 102
167 178 173 125 98 116 101 155 137 166 136 137 137 146 147 145 135 135 132 127 123 123 123 87 100 97 64 86 89 110 109 123 121 140 142 138 181 197 230 223 201 229 198 153 142 159 173
169 154 175 177 119 128 117 89 135 108 119 159 169 178 160 150 162 182 193 183 162 158 148 112 115 144 128 148 122 100 61 90 142 141 211 194 255 259 228 283 236 141 172 135 124 94 170
125 149 143 157 191 132 143 128 95 128 104 153 134 172 194 177 201 260 327 292 265 233 209 198 121 98 159 145 148 158 134 108 114 149 187 180 253 190 202 135 154 143 126 110 75 72 120
131 55 142 146 139 167 141 134 124 117 133 53 157 175 177 216 230 225 265 349 253 166 136 47 89 139 123 203 233 165 174 140 148 132 171 229 149 105 121 134 124 111 111 90 95 118 116
113 84 23 113 129 152 165 136 97 154 107 136 82 134 194 223 292 266 217 254 238 195 139 53 127 160 131 130 171 124 221 134 145 162 164 205 132 138 154 145 135 83 125 120 121 125 101
60 121 103 82 113 101 147 124 128 102 122 136 103 107 206 324 336 272 175 201 249 241 210 135 144 101 189 258 193 199 216 206 183 165 161 149 78 115 165 143 128 129 101 98 70 95 81
58 72 129 109 63 92 149 153 99 122 153 138 139 144 218 353 414 310 268 284 271 322 230 106 164 129 141 225 224 113 220 354 234 254 243 148 99 130 146 72 133 102 104 79 84 98 108
52 65 82 124 124 60 131 131 161 140 192 165 177 163 192 291 419 268 392 329 349 234 179 248 220 221 223 97 260 253 199 310 283 236 214 173 194 191 174 158 134 103 146 147 127 109 137
75 54 69 111 72 106 104 103 137 141 100 140 194 190 259 293 366 367 369 308 294 317 325 286 218 191 148 165 135 252 267 329 373 315 203 201 90 105 83 115 164 206 192 180 184 198 141
68 80 65 86 108 121 71 111 150 123 118 127 170 223 181 261 333 381 395 345 389 279 283 213 218 210 181 163 185 283 222 240 231 324 296 281 283 125 141 124 146 129 146 225 164 169 157
75 81 71 74 90 87 0 130 134 132 134 83 246 258 272 298 349 483 470 296 369 413 285 434 309 208 227 266 198 249 202 170 190 297 284 249 245 151 141 193 145 166 179 136 178 162 157
63 76 61 72 86 103 110 87 145 109 138 165 317 268 343 227 280 437 426 313 245 375 336 301 318 227 303 198 242 191 225 190 217 206 253 205 232 172 158 157 139 177 178 274 315 300 278
55 63 52 55 69 79 100 111 96 136 120 135 186 181 502 254 305 405 409 402 451 459 342 270 189 293 190 310 287 235 216 174 123 184 168 199 186 226 194 206 228 268 275 320 286 316 358
47 55 45 46 53 70 120 49 161 142 127 174 263 362 404 478 278 421 419 425 435 315 340 438 308 331 313 318 293 262 262 138 85 215 222 195 227 191 257 242 198 236 256 376 414 457 454
9 46 46 45 47 50 104 96 57 104 132 214 286 339 397 538 329 315 239 230 245 253 287 387 356 374 361 394 345 281 214 241 185 177 264 321 328 345 365 380 344 379 382 431 501 462 415
-13 16 43 44 45 56 89 115 84 110 125 218 79 543 612 448 398 348 349 279 240 277 284 369 366 371 390 315 455 362 304 253 288 325 325 460 507 450 439 405 450 425 451 461 482 486 474
-20 -18 -15 55 44 52 75 72 26 100 126 260 207 344 562 551 524 470 325 337 295 371 424 412 460 376 480 367 387 342 475 291 423 434 496 452 514 532 538 406 374 353 390 462 527 441 492
-103 -40 5 9 60 55 38 80 91 130 208 350 135 184 339 311 386 516 397 352 334 561 522 589 441 431 538 533 580 583 332 314 550 662 653 614 603 619 473 391 422 382 383 436 422 414 373
258 644 545 337 271 227 371 275 237 327 510 450 366 340 356 281 357 450 461 529 474 523 706 455 496 534 628 563 489 399 499 529 520 627 667 665 714 457 430 518 535 371 379 423 388 361 363
43 101 424 631 399 476 472 425 415 394 352 418 589 691 661 551 586 448 482 414 506 605 475 549 630 677 635 644 659 829 1050 940 736 563 481 528 502 562 449 506 443 333 302 295 300 249 173
69 44 30 92 210 316 310 336 467 462 406 377 376 520 503 346 405 472 559 482 520 520 697 536 431 357 392 662 684 604 596 478 372 306 278 223 319 349 345 354 396 391 246 279 270 236 249
107 116 98 53 47 80 76 35 45 211 236 432 260 407 631 524 579 512 534 482 463 579 720 632 371 252 248 376 438 530 551 339 230 155 179 231 225 239 263 362 271 113 192 281 331 207 288
77 113 155 165 145 120 107 123 108 72 49 71 198 141 234 656 385 229 510 526 387 525 562 344 320 349 350 338 341 320 335 280 210 221 328 443 442 378 433 391 262 181 158 245 320 262 156
45 59 91 119 129 153 155 141 149 154 150 128 157 150 68 154 167 70 97 118 112 145 270 179 290 306 267 267 279 286 242 283 292 261 317 437 453 417 415 413 345 193 258 314 282 212 162
37 50 74 98 99 98 74 77 92 122 144 179 243 253 223 229 268 233 200 147 109 115 195 239 149 254 184 258 273 289 315 316 297 316 285 328 326 357 337 370 274 209 184 144 126 153 146

GFSGBSN_con_3kmhel_168.txt.gz
Helicity
100 2 97 233 110 153 152 134 128 133 131 127 119 112 109 109 108 103 101 94 93 88 81 77 70 84 39 65 49 72 100 82 45 49 57 57 71 60 76 89 97 84 88 82 57 42 39
89 101 28 71 108 138 127 132 144 142 139 141 132 124 121 116 116 116 111 99 89 85 80 79 72 55 37 75 41 59 83 81 77 79 86 93 71 67 79 89 90 100 73 55 39 55 55
164 77 89 73 57 125 127 141 154 142 147 140 138 136 132 127 120 116 105 107 108 95 86 80 73 9 22 65 70 74 48 52 51 75 96 96 105 117 108 99 111 97 90 100 68 87 91
144 174 90 65 36 95 90 127 170 174 149 149 133 137 146 139 128 124 114 111 122 112 88 78 70 21 7 43 52 41 62 59 58 84 96 94 120 123 130 133 139 117 124 114 81 116 110
149 171 162 100 66 104 69 109 144 137 168 170 151 148 143 152 146 144 138 149 144 135 103 82 68 54 45 73 79 93 95 118 118 131 144 182 181 176 214 185 180 209 159 116 151 167 179
70 123 156 116 90 66 105 72 67 152 126 171 154 174 152 156 170 181 197 195 160 157 147 101 105 114 111 124 94 96 70 101 143 154 211 227 284 283 247 284 164 166 193 217 191 162 160
57 69 97 140 124 106 102 109 120 96 167 126 183 172 176 186 224 282 350 330 263 222 206 171 131 152 151 144 126 141 129 156 170 187 187 194 258 213 183 187 204 234 178 154 83 75 103
84 68 74 85 161 127 105 83 103 129 102 120 126 135 163 206 228 286 342 399 302 178 161 68 137 163 162 184 244 235 216 226 195 170 212 243 185 128 123 140 164 167 149 92 73 97 84
64 67 59 81 113 122 139 109 69 136 168 133 134 134 160 255 291 344 323 356 261 242 245 160 147 179 132 221 254 268 216 199 173 196 173 200 151 83 170 197 193 147 161 106 100 142 100
68 62 75 112 82 71 120 111 84 84 152 157 138 155 168 357 408 396 312 199 219 181 322 233 199 156 236 280 244 126 221 236 213 161 148 115 126 187 140 155 173 198 101 108 120 141 114
70 64 62 78 41 136 102 169 122 87 104 160 156 170 268 352 383 348 327 168 335 325 285 125 230 179 180 314 281 158 251 345 287 272 239 142 114 158 191 162 181 128 145 123 124 132 139
78 69 68 50 74 48 105 80 129 106 104 103 114 185 219 333 313 331 381 354 368 360 389 206 208 237 260 185 303 285 295 301 274 278 246 199 184 183 130 134 189 184 167 185 184 171 144
85 77 68 66 66 106 97 87 70 124 115 44 123 155 280 300 366 374 382 336 298 389 279 197 255 200 195 210 236 281 240 231 310 281 207 227 234 258 194 226 294 275 273 265 247 228 168
83 82 71 69 68 68 88 108 88 102 152 107 70 126 208 313 257 411 496 351 455 282 319 144 147 175 171 186 188 250 237 202 168 320 296 286 238 241 271 251 252 253 276 258 212 232 207
89 82 79 65 84 68 99 65 63 101 164 122 129 214 297 300 248 358 420 422 500 223 262 162 173 192 168 221 192 225 207 217 191 294 295 216 178 199 175 277 204 236 260 159 225 212 222
92 84 83 75 76 82 75 121 102 46 106 164 228 155 186 362 289 344 337 268 473 419 224 247 218 140 187 180 197 222 193 126 218 251 291 180 168 142 172 218 213 251 185 300 304 287 240
63 91 74 77 71 82 74 84 111 107 71 124 244 298 112 272 347 363 340 439 400 279 256 178 159 253 242 190 211 265 173 186 114 172 243 267 242 221 232 264 239 293 280 295 297 282 259
37 51 72 77 75 75 74 82 64 108 99 111 288 364 253 313 456 446 355 406 303 288 341 413 409 364 247 228 254 241 153 196 96 214 174 281 189 202 184 213 179 236 227 324 340 355 379
38 28 46 65 71 71 68 93 87 95 126 154 358 386 400 343 299 505 400 306 299 293 260 438 359 404 408 377 308 266 235 252 192 180 174 260 248 358 281 208 174 222 252 270 368 356 362
28 25 22 52 42 49 57 79 98 25 62 162 480 365 462 484 329 274 338 353 523 357 296 450 420 379 411 362 438 289 193 282 303 247 204 218 358 331 313 263 330 330 357 365 450 448 436
20 15 1 -3 40 18 49 75 62 52 57 139 457 431 458 413 481 272 473 609 412 474 401 404 420 283 339 376 352 342 369 380 358 316 382 320 276 382 348 267 298 327 365 454 506 401 439
-44 19 4 -33 45 24 37 38 76 78 23 129 329 307 442 397 237 181 311 387 433 416 342 387 346 284 343 401 305 272 364 325 335 359 360 457 435 494 452 375 431 448 418 450 503 471 459
-38 -43 -4 -23 25 43 36 38 65 47 44 121 408 324 214 214 251 265 381 321 332 302 387 326 244 191 209 192 311 377 419 379 343 371 408 529 653 520 437 489 594 573 463 602 610 481 427
134 14 -2 -46 -6 15 29 34 56 52 72 177 310 396 397 373 259 312 367 343 282 371 485 428 360 370 370 462 527 553 571 498 452 533 513 635 532 491 413 663 636 677 426 409 352 297 286
167 406 272 37 -17 18 32 9 44 83 87 137 227 363 277 189 262 250 249 312 480 456 496 358 380 439 460 614 515 467 567 601 612 711 718 449 484 480 579 720 703 602 499 481 456 249 260
-3 -6 39 207 495 506 293 173 299 250 229 525 396 348 289 264 171 280 242 264 463 565 517 498 584 596 685 668 635 535 598 584 626 725 440 533 653 666 646 695 740 522 258 207 287 186 263
38 -22 -8 -7 21 147 210 458 420 306 285 337 437 492 364 327 309 252 326 265 389 480 670 740 700 730 805 844 773 610 577 546 384 406 599 694 613 551 546 441 330 140 151 275 285 200 155
91 110 77 57 57 30 14 76 256 360 272 322 390 390 389 458 588 513 445 560 597 657 733 678 845 776 627 442 437 432 387 549 595 462 443 513 509 410 337 347 216 114 305 236 162 181 164
64 80 84 93 102 114 100 72 71 52 88 105 271 221 307 550 462 298 418 452 437 367 453 474 519 368 324 446 474 540 542 476 460 548 266 317 251 246 191 149 204 126 170 119 120 144 136

GFSGBSN_con_3kmhel_171.txt.gz
Helicity
144 83 -5 47 41 144 142 141 139 138 136 130 126 118 108 106 106 101 99 93 87 83 77 78 85 103 43 72 60 66 84 74 45 35 60 61 71 64 90 92 86 84 78 64 47 42 45
178 138 113 8 8 46 202 163 165 158 145 138 143 139 132 120 121 113 106 104 96 91 86 78 84 79 44 59 58 67 93 79 93 83 68 72 59 54 71 77 82 73 60 47 40 50 55
165 172 132 142 46 60 45 203 164 163 152 153 147 153 147 139 135 140 119 110 108 99 82 78 83 48 55 56 71 70 63 63 66 67 58 63 83 82 74 55 71 76 71 75 59 77 97
111 133 139 135 133 56 -105 83 88 166 166 175 153 161 160 155 146 150 141 144 135 108 95 88 79 38 29 52 76 62 51 50 51 57 74 78 104 102 101 95 95 79 71 76 96 129 148
30 77 130 119 155 114 77 -12 52 127 151 139 176 171 168 175 169 166 186 193 171 138 129 117 98 74 46 81 83 94 83 91 107 109 126 152 141 138 117 117 118 150 115 89 140 194 209
92 26 77 127 109 143 99 59 -21 21 77 152 152 199 174 174 198 214 241 258 200 211 203 139 121 131 119 102 102 122 102 110 137 140 203 208 222 181 161 178 141 134 154 166 163 137 140
56 79 17 78 128 118 147 167 115 56 77 99 135 140 178 190 226 296 403 416 301 270 250 208 140 185 167 148 115 129 126 136 169 177 144 180 188 141 98 127 188 199 194 150 88 70 87
64 56 62 57 78 107 131 171 153 35 93 56 113 138 199 272 302 324 377 410 333 195 130 81 148 128 131 202 191 178 162 175 165 162 230 239 161 112 162 126 152 148 148 95 62 90 72
69 81 59 63 79 99 134 194 196 161 109 66 90 155 167 220 349 399 327 353 244 253 238 147 131 148 154 177 217 177 171 203 205 256 193 222 215 133 129 174 143 127 132 116 93 127 72
82 81 88 71 93 35 47 146 170 214 171 103 130 107 210 303 382 382 347 293 303 271 296 175 179 173 219 279 254 234 179 259 280 205 185 174 186 190 106 99 116 133 61 74 105 156 167
93 85 89 78 71 95 60 108 172 232 153 155 130 132 234 306 293 386 386 300 369 379 368 169 262 277 282 439 324 269 320 341 287 263 221 171 121 131 192 158 101 94 111 121 153 148 143
120 96 90 87 74 69 65 85 96 201 117 102 153 133 189 288 301 324 394 534 527 456 341 306 275 311 366 319 436 463 317 353 244 226 221 173 198 148 133 182 125 131 201 209 191 164 176
142 124 94 93 83 71 63 83 118 98 153 111 94 137 166 322 320 509 604 635 411 307 290 210 310 234 229 254 320 329 279 273 272 272 203 212 214 230 221 260 172 180 261 291 243 238 201
96 142 114 90 85 69 62 101 77 76 111 163 131 151 127 285 386 518 662 566 357 188 305 166 180 146 213 224 206 264 228 257 171 260 232 190 184 189 288 259 212 184 244 274 231 262 219
111 104 119 98 88 73 64 84 102 56 126 131 131 172 198 224 359 584 654 417 382 322 322 234 178 256 260 144 153 220 178 157 146 231 187 155 164 135 130 285 243 255 264 226 263 274 255
110 115 95 116 91 85 72 86 74 63 87 128 175 236 220 149 251 499 535 369 367 341 222 272 302 203 118 160 188 127 148 108 113 142 192 152 171 110 135 140 140 179 208 305 334 321 309
88 105 104 103 103 93 76 85 82 75 80 109 232 316 218 156 329 416 404 715 661 454 278 325 249 210 157 191 144 150 90 145 39 72 138 184 158 154 159 143 145 261 276 335 290 295 283
71 62 69 85 114 94 85 72 91 80 48 138 219 311 224 271 340 499 483 454 424 268 377 324 277 280 149 90 137 120 93 96 80 124 70 160 122 196 169 167 152 95 170 296 389 416 322
64 73 77 68 94 93 82 73 87 74 93 236 252 332 277 326 462 470 393 273 172 205 214 341 283 232 303 226 164 173 153 162 173 152 114 227 205 302 217 211 231 234 226 210 250 277 251
74 91 78 64 64 82 76 71 74 75 -99 182 203 198 265 291 276 309 228 219 335 312 281 445 397 387 363 256 274 154 233 290 285 181 157 156 281 241 243 183 238 281 294 254 231 246 199
58 73 72 51 53 60 67 63 71 73 62 104 217 285 497 465 442 376 295 362 250 390 411 280 372 314 358 388 342 296 355 360 321 224 243 239 247 248 223 242 237 208 199 264 284 236 323
35 24 45 44 37 43 55 35 64 69 53 114 72 104 274 467 305 231 251 263 264 419 444 394 375 307 388 363 326 465 433 338 354 340 350 425 306 325 221 246 246 235 203 190 278 275 290
13 67 19 35 36 30 47 35 40 55 59 12 97 160 260 174 267 406 445 305 344 467 568 384 314 356 284 242 321 320 346 259 279 250 345 411 354 297 214 199 255 248 203 298 381 341 301
68 97 52 -1 26 16 38 26 48 52 68 122 19 81 170 461 327 315 279 203 236 231 411 337 309 323 318 368 404 406 351 392 336 290 240 246 187 320 279 427 339 311 330 299 315 296 444
227 90 -20 5 -3 -8 34 29 53 67 39 126 26 146 55 308 190 190 243 261 268 299 362 428 494 423 247 384 340 292 348 334 206 209 270 314 325 432 463 445 335 228 368 499 443 232 346
217 268 344 -41 -2 -19 9 40 41 58 25 95 20 126 156 279 382 368 205 228 326 356 557 445 518 467 452 302 346 267 237 221 122 176 405 385 432 387 515 454 417 347 375 215 239 208 279
-19 32 165 581 64 -31 -1 28 23 15 12 102 78 48 182 232 292 236 261 230 363 406 445 532 602 490 477 409 443 385 305 345 257 217 268 418 490 414 497 513 462 321 278 351 438 363 196
-8 -47 0 51 372 501 292 157 128 118 99 190 262 246 68 214 273 328 279 311 330 366 436 339 640 609 589 409 431 414 373 319 331 355 403 422 463 525 637 515 304 262 329 377 224 145 109
42 40 14 -20 -23 67 217 323 268 207 306 296 346 344 335 277 265 398 370 358 314 333 337 252 361 396 538 544 282 323 374 411 468 452 549 476 435 290 272 320 386 137 223 243 230 208 197

GFSGBSN_con_3kmhel_174.txt.gz
Helicity
191 206 201 26 25 51 128 165 139 132 137 141 129 120 114 110 112 104 102 91 82 73 66 73 89 105 60 57 65 58 56 46 38 34 81 81 88 81 68 64 55 45 53 46 41 36 25
133 173 144 148 51 -60 -4 148 160 142 156 149 146 138 128 127 123 120 119 108 93 76 72 79 97 104 53 60 69 61 73 56 74 66 81 84 97 102 96 89 88 83 60 43 44 36 35
45 94 112 111 99 25 67 3 118 84 150 166 149 151 148 149 144 137 133 128 113 88 78 84 110 93 61 62 68 59 84 81 101 124 101 84 76 75 65 66 75 73 73 52 36 58 74
37 51 69 70 108 78 40 62 -2 107 89 161 150 154 162 157 164 161 157 160 142 118 107 106 100 78 67 62 77 53 61 65 73 61 63 60 80 82 66 67 44 57 49 67 118 51 99
53 21 36 36 50 97 78 70 -58 5 126 180 168 168 169 180 188 188 201 195 181 163 162 141 98 97 55 63 86 78 51 76 75 72 77 64 62 90 59 53 52 40 85 75 100 93 127
22 40 37 22 6 32 116 74 -52 -34 -12 71 196 179 189 192 207 235 272 254 256 202 195 173 150 116 106 103 119 141 99 87 138 103 122 90 86 82 72 73 88 113 78 100 119 162 107
29 33 34 70 18 -41 62 149 194 15 -129 -3 104 213 199 245 243 309 419 479 343 289 218 247 132 232 165 154 155 103 145 164 152 128 135 86 118 99 33 40 129 164 151 123 135 125 116
49 36 33 47 79 18 -8 77 166 170 54 109 51 92 188 237 293 322 325 382 255 299 192 108 190 135 169 210 167 144 112 165 166 159 170 165 102 62 146 134 144 164 150 113 104 132 86
59 57 44 40 51 76 -2 17 95 183 120 111 136 74 184 213 323 351 319 209 238 293 273 142 71 168 221 155 197 135 117 181 160 158 97 120 167 91 96 148 151 122 112 97 127 106 38
81 75 64 50 50 67 87 37 67 120 181 119 169 133 114 295 399 444 386 239 277 286 342 156 205 151 166 239 213 159 103 165 185 118 126 119 172 195 138 126 102 123 78 82 99 118 118
84 107 88 78 62 70 60 89 62 100 148 195 127 153 79 310 287 498 513 374 313 328 531 145 237 211 208 265 232 162 157 207 154 201 207 194 121 76 127 127 99 155 87 76 86 97 118
-23 83 113 108 85 85 87 62 61 101 111 200 174 174 148 169 293 391 676 662 719 637 557 361 285 314 326 258 308 268 243 281 215 198 229 218 268 200 159 138 76 147 139 148 143 133 158
-11 58 119 139 112 101 95 81 63 32 96 123 159 190 198 272 317 589 800 754 525 419 320 348 473 384 283 369 333 404 343 330 382 396 261 236 211 199 183 172 128 133 167 183 175 202 175
67 101 126 147 131 106 99 93 79 23 -8 117 110 189 153 325 255 520 776 712 362 152 217 126 170 130 262 289 247 261 349 308 253 281 227 201 191 136 145 165 198 152 132 188 224 187 168
56 129 139 142 134 123 102 102 87 92 12 37 125 206 211 223 240 629 749 488 393 239 126 223 158 234 284 193 254 257 190 164 157 231 253 165 158 126 129 61 111 108 150 81 216 225 250
82 137 129 148 122 138 110 100 85 76 99 -39 186 217 215 199 264 511 561 486 257 247 54 211 234 194 244 220 250 164 152 116 97 66 75 152 176 96 54 51 69 127 86 255 213 286 219
96 100 122 141 140 105 127 104 96 78 98 21 151 158 215 255 261 475 333 397 445 343 235 217 189 195 168 178 152 109 96 128 65 58 61 131 149 131 142 126 94 186 163 180 166 181 199
67 37 94 113 127 115 95 106 90 81 85 121 83 332 85 440 375 401 457 526 442 264 289 303 263 234 162 150 152 127 114 63 28 72 68 88 111 144 52 137 33 48 61 101 215 174 121
33 61 82 91 98 109 89 96 92 82 98 150 40 215 128 313 474 513 447 414 357 451 378 340 320 343 219 252 237 148 66 69 40 55 81 59 126 187 169 102 99 98 61 64 65 162 141
62 52 81 88 108 88 93 94 90 90 93 122 48 229 184 291 295 541 569 301 434 209 301 377 283 358 329 206 84 79 118 123 44 22 63 40 110 107 127 97 113 122 125 103 96 169 153
162 50 65 87 112 95 76 83 88 89 86 149 118 129 280 92 329 325 490 310 440 622 405 414 442 341 429 336 233 240 170 275 181 139 134 134 153 105 88 177 184 96 58 51 93 125 164
53 74 72 79 98 96 72 61 82 89 92 164 100 125 129 329 36 219 487 241 351 504 593 317 308 176 142 204 186 190 303 261 256 246 154 157 167 186 138 138 159 157 115 124 99 66 89
-5 61 75 63 62 93 51 49 68 87 133 142 59 182 290 -68 305 278 259 492 315 310 326 326 175 119 155 115 189 263 212 194 219 214 144 231 252 281 200 204 231 242 137 158 114 90 90
26 73 129 41 40 62 25 16 57 90 117 166 132 -59 232 62 114 98 107 322 293 174 307 156 145 138 110 347 301 353 414 352 239 252 221 259 321 343 264 292 332 188 65 57 54 87 132
163 77 -4 16 17 41 24 -4 65 95 76 153 71 134 82 218 221 151 221 226 384 325 491 336 262 244 334 426 441 376 364 355 349 293 269 277 309 388 345 337 258 143 111 174 119 70 99
82 159 199 -23 -0 20 26 -1 73 85 80 134 133 101 110 80 188 131 233 148 232 329 275 402 436 285 400 495 518 400 380 297 269 300 381 280 314 299 369 332 329 141 143 204 203 158 143
-24 62 272 -33 -19 -2 3 21 61 81 65 113 75 40 39 59 64 216 210 333 497 527 407 365 415 379 411 448 372 335 350 420 380 319 375 411 383 343 348 341 270 225 214 219 236 267 255
-3 11 171 388 -47 -14 -11 32 47 66 60 92 132 104 -71 136 131 358 303 213 409 380 490 481 540 651 758 477 408 464 363 234 239 280 276 315 331 340 299 258 263 349 319 292 335 281 201
-20 -24 -21 250 314 39 -26 24 39 37 80 73 108 127 63 19 119 349 370 433 297 238 356 227 238 195 304 375 408 440 458 359 254 270 265 315 367 257 245 274 412 198 253 255 242 252 282

GFSGBSN_con_3kmhel_177.txt.gz
Helicity
35 24 155 215 150 121 163 191 156 122 128 139 134 118 115 108 109 109 105 96 80 67 67 75 89 112 108 66 98 27 24 26 45 65 84 84 76 77 57 71 52 41 68 61 60 41 31
-3 -4 35 66 138 144 165 112 168 156 162 136 144 136 123 123 121 122 120 112 94 79 74 80 95 119 85 102 99 49 50 31 32 39 66 83 113 104 102 70 80 108 83 53 49 37 36
38 -22 -20 15 47 75 106 136 136 212 137 160 144 140 136 139 139 140 138 128 108 90 85 92 105 103 94 88 92 52 70 83 89 107 82 114 123 130 112 79 79 69 64 47 31 31 60
7 33 -48 -57 24 42 76 20 126 95 197 131 172 137 149 151 155 160 160 151 126 108 104 101 109 91 79 70 100 43 52 65 79 102 130 86 99 115 92 100 57 62 56 64 128 95 81
30 16 28 -60 -35 -0 48 84 32 41 70 180 162 177 154 169 175 183 197 181 161 143 141 108 104 95 70 98 65 38 41 61 54 71 73 73 88 116 98 70 71 58 87 38 73 56 99
50 33 22 16 3 -35 38 53 28 22 23 32 180 120 159 176 188 224 248 210 220 174 151 126 181 122 120 63 49 95 70 67 96 74 88 69 103 102 90 82 98 43 45 48 101 112 85
84 45 30 19 24 46 36 16 23 28 7 -47 52 127 158 137 215 275 366 411 320 258 159 178 113 147 231 157 148 60 105 86 104 87 92 68 112 106 56 67 75 156 115 103 74 73 225
57 65 38 29 29 28 59 48 58 46 32 25 -78 34 77 230 249 325 299 321 218 251 169 158 248 145 197 170 123 106 75 144 165 132 109 137 92 83 71 162 88 81 65 65 53 81 258
18 58 42 38 44 34 32 56 51 58 74 50 -46 -91 38 172 262 358 286 193 173 283 234 9 75 143 116 146 144 101 87 85 109 100 124 116 117 49 121 106 114 74 68 67 75 163 104
-2 50 59 41 52 47 42 41 65 72 97 58 47 81 10 54 360 391 276 175 341 252 336 165 107 169 147 224 195 145 82 122 163 157 156 156 133 131 136 122 111 110 66 104 109 150 115
-15 19 53 48 54 61 58 57 60 83 143 117 58 43 200 92 161 397 395 261 378 419 363 127 100 167 161 276 201 145 120 122 201 224 194 189 180 199 162 98 81 118 228 178 110 127 96
-13 1 -14 44 58 75 79 64 58 76 120 126 122 130 128 224 180 182 446 493 422 711 521 473 298 276 270 176 200 118 165 161 175 178 195 155 134 147 115 129 154 188 181 152 119 117 145
-10 16 -10 -41 65 92 104 79 75 90 85 125 122 115 168 218 202 319 747 704 761 601 487 585 505 298 231 372 248 292 225 267 414 399 277 241 242 174 181 157 141 178 179 209 174 185 167
-9 2 56 24 -11 121 124 100 88 98 90 111 135 114 264 198 287 514 688 810 561 236 283 129 181 204 210 328 230 313 299 298 170 219 209 251 256 195 179 193 191 169 169 189 155 121 105
-11 21 61 34 58 127 151 125 106 118 105 98 138 167 227 197 254 477 582 598 500 210 131 209 29 39 204 207 349 349 294 243 246 240 463 366 228 102 127 79 109 172 120 83 116 172 239
37 27 63 58 93 156 172 146 117 131 108 94 163 189 203 207 224 413 578 419 368 210 25 193 251 222 187 233 316 305 281 206 178 138 165 252 259 223 216 167 76 71 93 143 176 242 189
46 49 74 84 147 164 163 150 123 132 118 104 152 229 106 158 253 446 375 436 359 263 305 246 147 154 101 147 141 212 334 226 101 185 150 217 271 321 162 198 149 134 166 172 128 178 195
52 36 50 99 136 139 145 142 136 130 119 135 181 362 87 274 243 462 460 563 431 267 398 106 193 82 56 37 67 144 157 103 52 109 166 147 252 248 124 71 41 61 108 76 196 143 107
30 21 68 107 82 111 128 118 137 122 127 190 195 177 206 129 399 339 576 438 315 186 249 262 199 115 98 62 99 88 72 134 134 92 88 98 287 263 205 187 151 113 86 63 66 120 84
100 20 29 34 80 99 106 111 141 133 114 198 208 258 139 242 267 380 440 488 396 218 102 239 183 76 130 147 132 75 128 161 100 32 114 105 190 192 318 164 77 76 52 36 64 99 62
74 109 24 64 76 95 105 115 124 116 112 206 210 172 284 200 235 248 280 320 389 428 306 126 117 119 192 274 215 154 212 271 237 82 86 98 233 106 103 65 134 55 33 33 62 95 116
107 37 4 54 70 73 88 84 93 95 119 250 219 180 156 51 -21 273 296 315 430 417 478 322 262 203 236 189 362 381 249 296 361 177 168 181 251 190 100 63 77 80 65 50 65 47 72
122 37 55 108 74 75 74 81 73 65 157 277 188 195 129 154 53 116 330 326 269 355 265 255 201 211 154 90 81 117 301 281 206 220 185 168 159 125 153 56 56 111 72 104 103 96 100
71 41 58 85 75 74 93 89 63 83 109 246 270 198 74 176 373 117 146 143 221 227 379 395 256 179 178 328 427 483 455 358 297 259 243 284 174 105 77 141 149 96 69 89 91 90 97
58 165 11 55 103 78 74 86 61 55 76 216 195 222 122 21 155 225 41 74 300 285 215 265 370 301 346 404 570 500 492 374 247 158 153 112 53 220 202 190 144 166 77 118 190 100 62
43 103 202 33 179 68 53 76 71 54 82 200 181 200 98 139 127 246 274 102 138 239 279 368 293 385 480 579 361 482 437 316 378 301 199 145 169 256 319 299 257 107 92 167 211 162 88
24 98 167 -20 23 13 26 49 38 62 81 183 151 80 166 5 -35 137 233 134 43 42 260 412 494 362 338 545 398 465 405 309 243 252 336 429 507 404 369 284 284 234 273 248 282 257 245
-37 67 109 -3 24 22 5 35 35 68 76 178 137 94 80 54 5 -74 175 174 51 147 234 168 630 577 748 597 399 301 278 360 336 311 489 468 496 492 449 344 335 159 255 335 267 248 285
-39 -6 53 227 -26 -42 -31 4 25 57 91 115 131 61 64 45 -37 -37 124 289 324 141 159 223 276 408 543 658 548 592 587 491 411 393 144 320 371 456 357 329 214 261 164 208 292 288 267

GFSGBSN_con_3kmhel_180.txt.gz
Helicity
31 43 79 15 43 86 125 201 208 237 185 139 121 125 109 98 94 105 100 105 85 71 67 72 95 111 111 79 100 16 6 31 68 77 99 90 81 75 73 64 70 32 87 62 93 65 52
51 29 26 57 -84 18 81 181 132 184 225 209 127 127 124 116 102 114 111 110 101 86 76 80 98 127 82 117 85 4 6 12 47 70 76 77 125 153 147 150 94 127 147 123 49 40 27
70 39 19 5 23 -91 -19 14 230 129 207 258 146 139 131 131 124 122 120 124 108 98 89 91 101 111 118 88 93 46 42 42 78 66 87 129 159 122 144 71 91 76 66 52 32 25 31
65 51 35 7 -6 -9 -84 -73 31 169 58 240 252 200 149 143 147 141 133 130 126 109 109 102 120 118 77 89 73 77 50 71 71 96 194 101 103 130 103 142 65 66 40 56 26 91 142
54 47 49 45 12 -10 -30 -108 -67 44 103 5 115 321 214 150 169 162 159 144 135 122 135 123 128 97 76 72 79 59 47 56 42 78 111 106 107 106 84 83 82 51 70 30 -2 113 142
48 50 44 75 42 7 -22 -16 -68 -40 22 74 -94 151 285 219 148 190 204 171 167 170 163 132 173 152 158 77 69 67 45 50 76 69 101 91 101 122 104 96 143 88 32 21 -3 80 100
41 34 29 48 75 39 1 -26 -30 -28 44 83 64 -112 105 224 205 225 284 361 291 253 143 208 157 259 292 58 203 69 92 66 91 76 113 60 144 145 70 74 55 64 98 120 76 62 75
34 32 23 17 43 68 26 -14 -23 -46 -14 -3 35 -35 -102 26 222 229 271 326 230 226 144 140 253 35 143 120 108 120 73 153 144 110 79 121 119 73 56 62 58 67 91 93 100 92 75
24 14 8 -5 17 76 55 4 -3 -21 -10 20 41 -65 -64 -155 57 330 296 181 179 205 184 -7 75 170 199 214 146 56 67 66 97 111 102 101 116 27 82 98 139 124 106 82 84 109 136
8 11 6 3 -5 45 83 17 30 4 -2 77 70 35 -41 -37 57 211 250 175 148 95 258 133 135 198 106 105 95 107 75 60 134 85 68 83 67 93 49 82 118 104 60 39 67 140 124
8 8 0 -6 -12 21 72 30 48 31 14 29 43 110 122 86 202 185 219 214 96 291 403 155 118 106 213 276 181 101 138 85 147 139 119 173 95 106 139 91 147 119 174 255 201 129 106
6 -5 -22 -26 -23 3 53 47 52 55 38 32 43 36 104 178 113 61 200 368 383 410 600 367 131 217 186 166 262 75 161 136 126 133 143 118 89 124 121 154 184 165 160 141 116 114 129
11 10 -25 -36 -38 -14 30 63 63 75 68 59 55 37 112 164 116 160 351 439 348 583 420 727 211 149 136 264 169 308 134 183 280 295 214 177 180 175 249 197 175 196 230 221 187 175 168
27 20 -5 -19 -43 20 60 71 88 97 83 59 68 62 94 137 170 174 147 535 487 390 352 325 243 187 210 184 179 273 227 215 167 246 196 297 328 258 291 213 264 236 291 328 281 137 67
46 22 21 -9 9 -10 84 80 104 131 93 70 90 125 136 126 139 211 191 459 562 320 252 403 147 248 260 254 299 274 294 271 291 309 366 269 231 90 153 199 125 183 184 138 165 174 211
32 45 38 -4 8 71 100 98 137 161 109 96 153 146 154 154 159 224 148 463 385 220 57 245 229 143 165 195 290 244 330 315 222 228 259 329 191 140 102 64 86 90 116 183 239 236 234
44 69 61 38 18 115 97 99 155 164 117 106 188 193 108 109 195 234 285 302 232 202 155 17 184 139 74 115 182 249 334 364 281 250 227 372 391 251 109 244 331 326 218 280 256 300 275
54 62 71 49 72 103 88 91 166 168 134 161 208 204 87 169 236 317 291 428 359 327 244 256 110 116 69 65 100 154 118 243 161 210 229 276 449 438 396 270 165 183 157 204 386 322 185
35 44 49 48 30 43 69 127 174 168 157 258 259 196 115 174 298 320 225 181 167 147 206 235 131 58 81 51 154 60 84 71 202 71 148 268 355 365 353 278 223 217 228 151 187 205 168
80 44 59 50 40 60 120 207 166 144 132 240 268 208 226 142 179 322 298 208 294 173 183 231 133 194 94 94 59 86 61 101 167 124 84 264 380 363 516 338 546 366 218 173 196 222 196
70 81 87 68 97 100 131 120 127 126 108 240 258 219 221 129 220 111 126 128 218 281 170 166 242 223 146 52 119 112 37 46 112 126 148 221 312 252 210 212 160 214 134 161 153 133 153
62 68 123 37 4 24 58 81 113 108 88 228 312 245 194 181 -2 151 238 217 237 298 420 239 308 146 106 101 63 -55 142 96 109 112 202 243 252 238 199 134 129 32 65 74 87 65 73
56 90 138 2 3 70 84 102 93 95 170 211 202 201 190 54 46 144 146 108 8 140 247 182 150 179 176 68 62 43 140 240 266 205 235 281 377 252 235 127 249 148 145 54 45 47 45
39 67 110 38 60 81 96 92 95 104 105 223 180 222 161 151 61 34 82 -27 370 178 188 236 188 247 205 187 333 308 539 425 341 345 386 409 515 353 425 424 359 244 109 100 76 51 49
36 74 84 36 7 72 89 100 65 69 44 129 191 237 202 96 82 205 225 -2 52 171 143 175 143 162 265 382 376 175 355 350 515 509 504 482 563 406 599 611 503 331 153 70 49 33 17
33 79 71 -20 15 78 57 78 72 69 66 62 145 155 212 117 95 131 -3 469 84 128 98 96 191 382 345 443 586 190 210 354 207 169 123 104 228 205 255 280 288 93 31 55 128 73 106
31 54 111 53 47 19 -7 40 56 60 63 60 161 157 171 146 87 67 -158 193 223 201 320 214 192 322 258 500 466 447 322 174 207 267 355 258 204 228 239 234 162 81 78 66 99 208 230
4 -3 117 84 28 86 78 24 28 79 87 102 129 144 206 138 86 76 8 -70 51 173 159 371 309 378 420 352 350 312 299 287 312 358 540 529 451 411 292 272 192 85 187 182 320 305 274
-3 -28 68 233 10 29 51 41 66 40 65 77 118 120 129 64 140 140 22 -71 -172 66 112 84 331 275 218 522 493 560 421 342 342 299 162 363 427 489 218 296 305 140 186 265 327 321 232

GFSGBSN_con_3kmhel_183.txt.gz
Helicity
65 61 70 53 54 74 44 67 120 60 165 277 329 207 158 114 110 103 98 99 84 82 87 87 86 87 94 67 78 29 21 19 54 72 97 144 110 113 118 149 146 96 51 113 65 48 22
46 54 82 81 51 40 55 22 61 90 28 168 242 387 186 133 115 120 109 108 101 86 90 91 98 116 64 71 59 36 -5 18 67 92 131 118 138 145 132 132 201 125 123 149 132 77 68
41 45 47 77 85 54 34 37 -31 32 75 80 148 230 376 185 136 124 124 115 108 91 96 99 102 110 91 66 113 107 18 53 35 82 160 147 142 182 218 153 153 155 82 80 67 53 61
41 41 50 62 70 76 49 22 12 -98 -5 82 26 137 252 403 186 139 136 128 116 98 99 114 125 122 33 41 56 114 83 146 120 110 123 170 123 114 127 193 173 119 94 99 42 59 65
48 46 50 63 60 65 64 31 7 14 -65 -73 48 -21 67 328 223 156 158 151 126 103 112 123 147 107 -18 12 118 80 55 78 81 112 145 142 105 118 154 159 151 114 137 88 79 35 185
54 51 55 53 63 72 58 67 19 -1 4 -58 -46 71 -15 -48 244 266 174 184 163 161 152 153 183 215 173 127 147 98 68 90 103 85 131 118 111 156 188 179 184 170 125 90 79 78 241
47 50 53 60 48 50 48 43 65 7 -6 -2 -38 2 37 -110 136 241 267 291 283 241 225 366 243 418 222 168 135 122 123 166 121 124 168 116 166 194 118 98 139 129 103 138 87 64 112
39 42 44 50 51 39 38 35 42 51 1 -15 -23 -13 -6 -30 -207 -111 281 394 312 202 191 173 266 173 176 121 188 146 95 198 197 174 182 194 154 143 92 102 102 86 95 130 65 6 122
49 48 42 44 40 31 34 35 30 67 38 4 -24 25 13 -97 -137 -68 88 184 225 203 233 128 128 185 203 250 224 150 199 211 208 220 195 205 154 89 101 115 112 122 132 143 123 15 56
41 30 38 41 34 29 17 21 15 38 69 18 -4 -2 89 66 -48 -19 -3 66 202 155 172 134 166 187 187 281 192 213 138 178 288 178 164 118 88 148 128 122 138 144 158 147 136 135 120
38 28 25 29 24 25 16 15 5 19 70 29 17 10 30 86 58 -155 7 16 146 303 455 155 174 151 196 371 303 157 152 176 169 246 219 230 129 118 161 160 93 203 146 171 193 212 215
37 22 17 26 21 17 19 12 8 19 58 46 44 22 31 124 63 -126 32 -2 287 378 506 445 114 263 250 235 370 233 230 182 163 177 157 132 163 107 147 199 137 146 254 227 228 215 205
27 18 9 9 16 17 14 -2 -5 27 52 63 71 40 70 131 217 100 64 129 306 497 423 488 344 231 287 363 267 371 217 234 332 332 274 196 144 153 151 177 214 321 375 320 244 329 317
14 11 8 10 23 16 -9 -12 -14 73 59 77 85 77 68 137 108 288 190 180 304 494 442 230 341 195 265 323 304 269 308 250 172 298 313 338 322 166 271 260 314 385 450 426 292 273 216
8 4 19 3 8 8 8 -16 30 102 73 95 106 150 144 123 79 82 208 73 280 339 389 481 172 312 355 278 342 380 402 316 301 305 424 352 319 285 346 427 396 388 351 369 315 252 253
9 17 9 7 20 33 19 -18 104 114 75 106 223 212 98 109 89 109 182 187 187 415 186 304 341 293 311 357 519 354 447 349 297 243 305 376 351 332 270 346 247 338 372 335 320 352 377
5 18 -7 13 28 31 25 42 104 131 61 159 313 275 83 105 132 123 169 289 89 195 335 146 270 218 192 269 263 256 487 361 318 254 254 354 334 303 320 308 378 241 321 379 312 394 435
5 1 -6 54 44 42 49 64 111 110 73 234 393 294 130 165 74 49 66 271 142 95 185 290 174 196 197 124 144 248 145 298 228 297 300 346 413 382 269 251 250 266 290 355 513 527 360
9 18 9 46 49 56 34 73 114 77 154 380 396 427 183 163 115 127 170 220 150 137 173 267 219 150 222 138 137 68 121 138 282 132 233 387 516 427 497 331 278 269 255 218 261 358 351
19 41 39 47 56 46 11 78 66 70 215 394 503 382 211 192 27 46 131 231 251 200 222 278 357 189 136 160 198 153 52 96 48 144 187 235 400 399 442 516 613 486 424 253 322 439 440
24 15 59 27 81 73 28 64 41 110 234 414 519 446 311 193 117 94 21 116 195 281 256 128 145 176 138 115 72 89 91 35 99 86 112 216 160 275 201 265 351 293 435 442 424 437 416
4 -6 28 23 63 65 26 53 79 213 190 443 551 462 325 209 126 115 170 196 200 208 251 266 202 205 206 175 114 42 104 76 110 162 138 222 214 151 144 130 160 181 123 195 262 329 248
11 20 15 10 53 35 36 95 134 233 145 413 346 312 256 193 133 111 66 119 170 166 180 88 116 149 111 69 108 128 132 117 231 163 201 206 116 216 188 192 182 233 132 215 207 137 202
-11 23 29 29 38 7 51 151 213 116 9 277 263 279 312 246 166 143 64 -13 101 262 183 86 71 163 58 195 241 209 117 40 86 107 161 161 118 336 360 475 307 116 121 81 170 97 112
-14 8 30 36 33 83 58 47 9 8 16 183 226 235 194 190 156 114 116 32 18 81 218 284 172 80 197 183 165 141 188 75 107 56 104 95 241 438 427 332 337 221 150 140 260 47 111
-17 7 46 42 0 -22 16 55 47 56 51 202 169 200 221 177 92 86 88 91 89 92 145 123 101 194 192 233 393 194 46 94 132 242 305 333 345 458 410 328 236 164 277 342 265 263 26
1 1 67 126 -28 -20 0 17 27 45 13 172 169 150 146 93 129 129 67 89 93 152 110 167 132 148 205 159 265 305 193 -67 135 371 567 432 334 504 586 483 367 286 319 292 486 393 19
-10 -6 48 135 45 22 66 17 40 58 53 94 188 128 106 110 106 134 169 73 -35 66 163 50 86 -42 81 149 201 199 126 117 -32 -98 -47 191 379 461 414 524 450 262 270 380 160 124 143
-17 -33 44 158 87 57 -11 32 12 41 50 128 146 156 171 117 77 71 91 73 30 -113 -125 234 203 155 242 121 456 352 270 179 188 72 277 157 463 206 196 192 71 102 177 114 147 196 255

GFSGBSN_con_3kmhel_186.txt.gz
Helicity
42 49 43 46 57 54 64 94 120 127 79 117 156 154 254 292 138 146 135 119 96 88 87 82 99 105 108 87 79 -26 107 89 86 75 86 102 118 102 107 112 143 99 111 123 109 49 70
44 43 50 47 41 51 51 53 75 103 121 110 145 128 172 248 304 158 151 142 114 95 89 102 100 122 82 82 42 59 67 47 73 88 115 122 127 129 121 108 156 178 148 153 145 124 85
61 57 40 36 44 39 37 49 44 55 79 110 114 98 110 216 161 270 184 156 141 115 88 98 109 103 100 76 78 185 202 104 58 84 134 154 131 160 153 132 160 124 145 137 104 111 79
64 55 44 37 42 45 47 42 57 38 44 66 138 90 60 137 160 203 210 181 147 141 118 104 118 112 29 36 52 51 155 147 145 84 87 102 113 129 98 134 168 145 128 118 51 73 74
64 64 57 46 42 46 48 47 49 58 39 49 80 114 93 -3 195 101 268 196 142 145 154 143 145 120 3 40 87 70 89 91 120 134 105 77 103 103 134 148 171 169 124 112 60 65 110
59 61 60 65 68 55 62 52 56 55 50 44 58 72 102 88 101 15 124 247 158 211 206 174 212 202 188 124 117 131 102 86 102 119 170 128 140 167 222 220 145 157 164 120 81 91 121
54 53 56 60 63 55 60 62 57 63 61 60 46 58 62 48 78 -7 -79 184 396 324 274 429 275 437 206 126 153 135 165 171 138 145 192 168 177 212 154 140 186 120 138 118 94 124 142
67 66 50 45 51 51 58 60 56 58 51 54 60 53 59 81 31 11 -58 176 314 282 237 219 345 156 189 245 359 291 166 264 233 187 225 208 151 152 125 158 149 118 123 108 64 60 154
70 63 54 52 52 52 55 45 56 59 51 42 53 56 48 35 114 98 29 -36 201 327 235 162 176 240 258 173 220 182 199 224 255 272 240 228 187 97 155 163 163 131 131 120 109 66 115
66 61 58 53 53 59 58 43 47 45 41 37 33 50 57 77 80 108 66 61 28 184 365 277 217 234 184 232 173 119 169 266 328 216 287 162 120 196 131 157 176 145 141 102 145 156 108
62 63 53 50 58 56 47 40 34 34 27 29 23 41 61 75 105 99 191 -19 28 114 447 249 252 207 141 371 409 179 178 249 220 313 345 263 118 168 161 161 152 225 138 161 173 177 162
57 58 46 46 52 51 45 39 28 31 27 27 21 27 56 113 79 81 22 17 106 62 296 312 209 390 419 223 362 217 266 322 231 230 154 197 169 156 248 153 148 164 237 265 235 204 186
42 42 36 39 37 41 38 32 25 37 29 33 29 24 69 155 42 50 118 37 4 89 74 182 226 277 318 384 227 419 235 336 411 379 231 206 160 203 191 263 148 234 320 329 309 320 246
26 23 23 25 30 31 30 21 18 35 35 20 32 42 74 164 94 83 134 132 -132 -204 65 85 220 184 283 357 288 370 313 297 298 285 239 345 303 199 235 237 362 287 347 529 471 412 265
10 11 12 25 30 25 16 9 11 21 30 21 53 79 129 142 128 100 189 218 -101 -123 -53 228 88 166 214 301 361 365 424 342 309 317 396 283 234 205 275 296 232 404 364 355 392 344 308
5 9 14 17 9 2 -7 -7 12 32 39 29 140 140 130 166 173 114 -33 43 205 314 162 248 184 175 171 228 411 387 394 318 279 323 357 417 332 315 171 342 229 289 448 443 406 301 257
7 5 4 13 4 -18 -18 2 34 38 30 30 169 170 187 243 213 147 -11 -56 45 14 215 189 372 259 165 253 306 275 452 400 282 266 286 447 325 293 341 336 416 567 389 392 323 435 388
4 3 4 1 -6 -2 10 25 41 45 34 103 234 164 271 354 244 141 29 33 194 33 25 101 210 312 215 171 206 247 271 272 258 354 319 304 370 333 232 172 298 382 459 479 520 544 414
0 -4 -1 -8 -8 12 22 29 39 38 73 259 300 255 196 377 373 134 78 32 90 162 54 71 214 178 318 178 208 238 142 167 421 186 340 394 497 450 468 336 327 298 352 385 505 435 332
8 4 11 -1 9 30 36 40 58 33 128 346 443 271 410 370 335 126 252 58 115 59 114 36 105 244 243 226 236 138 92 163 159 177 158 316 408 422 433 438 608 497 374 309 368 455 551
5 16 16 49 31 45 59 56 60 76 127 472 415 315 604 454 277 106 225 134 55 115 111 101 -81 123 113 135 134 136 182 186 140 114 150 200 282 303 236 314 261 277 399 364 392 369 458
7 11 21 65 77 45 42 82 23 110 119 427 344 372 456 298 281 117 170 162 196 37 118 149 -11 31 168 127 97 180 72 131 134 159 134 189 292 231 213 296 258 340 326 249 288 298 226
16 6 31 54 47 22 34 47 49 71 179 329 361 419 412 351 257 211 180 120 74 106 158 276 67 159 220 184 160 92 88 120 133 214 165 174 204 301 138 190 215 231 177 415 348 252 287
10 3 14 49 79 14 6 -5 64 61 143 407 466 412 442 346 274 151 131 84 46 5 31 187 228 122 156 102 199 232 220 123 74 115 154 174 212 301 240 270 248 161 192 130 237 247 241
15 10 3 56 82 27 16 6 65 71 245 430 418 447 422 311 222 117 94 53 60 82 7 -47 135 217 35 118 75 76 123 107 45 53 45 241 191 279 374 352 290 135 186 199 234 39 217
18 26 26 69 108 8 57 84 104 150 490 481 619 421 362 312 207 103 79 81 73 80 68 -34 48 64 83 70 114 88 147 92 83 59 33 22 136 259 259 294 277 44 215 198 196 118 294
-1 0 39 66 88 -61 12 45 201 313 319 394 407 198 157 169 152 135 109 56 89 93 48 -19 3 28 68 131 155 131 119 101 133 22 121 53 72 193 281 194 278 255 180 249 248 156 298
-11 -17 51 81 38 -86 -16 34 13 21 13 195 176 176 114 127 171 144 125 92 136 119 77 73 60 74 128 121 112 240 126 130 199 119 194 214 280 250 254 216 230 92 240 263 277 259 221
-8 -33 85 69 46 -39 -11 17 20 16 -8 92 166 172 160 126 82 124 102 103 111 24 60 44 119 196 270 197 90 197 87 166 257 317 283 293 445 454 318 312 416 347 308 409 361 347 204